Flag for U.S.A. Weather past 2 weeks in Angels Camp, California, U.S.A.

Now
67 °F

Clear.


Feels Like: 67 °F
Forecast: 53 / 89 °F
Wind: 7 mph from North

Location: Modesto City-County-Sham Field

Current Time: Sep 20, 2014 at 7:33:19 AM

Latest Report: Sep 20, 2014 at 5:53 AM


Visibility: 10 mi

Pressure: 29.84 "Hg

Humidity: 68%

Dew point: 56 °F

Location of Angels CampLocation

Historic Weather in Angels Camp — Graph

°F

Angels Camp temperature yesterday

Maximum temperature yesterday: 86 °F (at 2:53 PM)
Minimum temperature yesterday: 64 °F (at 4:53 AM)
Average temperature yesterday: 75 °F

Past Weeks' High & Low Weather Summary

 TemperatureHumidityPressure
High100 °F (Sep 12, 3:53 PM)90% (Sep 9, 6:53 AM)29.97 "Hg (Sep 9, 6:53 AM)
Low54 °F (Sep 9, 5:53 AM)12% (Sep 11, 4:53 PM)29.67 "Hg (Sep 17, 5:53 PM)
Average76 °F45%29.81 "Hg
* Reported Sep 5 5:53 AM — Sep 20 5:53 AM, Angels Camp, Weather by CustomWeather, © 2014

Note: Actual official high and low records may vary slightly from our data, if they occured in-between our weather recording intervals... More about our weather records

Advertising

Angels Camp weather history for previous 24 hours

 ConditionsComfort  
Time TempWeatherWind HumidityBarometerVisibility
5:53 AM
Sep 20
67 °FClear.7 mph68%29.84 "Hg10 mi
4:53 AM67 °FClear.6 mph68%29.83 "Hg10 mi
3:53 AM67 °FClear.5 mph68%29.83 "Hg10 mi
2:53 AM68 °FClear.3 mph65%29.84 "Hg10 mi
1:53 AM69 °FClear.3 mph66%29.85 "Hg10 mi
12:53 AM71 °FClear.5 mph61%29.85 "Hg10 mi
11:53 PM
Sep 19
72 °FClear.6 mph59%29.84 "Hg10 mi
10:53 PM74 °FClear.8 mph57%29.84 "Hg10 mi
9:53 PM76 °FClear.5 mph52%29.83 "Hg10 mi
8:53 PM78 °FClear.9 mph48%29.82 "Hg10 mi
7:53 PM81 °FSunny.6 mph44%29.80 "Hg10 mi
6:53 PM83 °FSunny.6 mph37%29.79 "Hg10 mi
5:53 PM85 °FSunny.8 mph32%29.79 "Hg10 mi
4:53 PM86 °FSunny.12 mph32%29.79 "Hg10 mi
3:53 PM86 °FSunny.6 mph33%29.79 "Hg10 mi
2:53 PM86 °FSunny.8 mph35%29.80 "Hg10 mi
1:53 PM84 °FSunny.3 mph37%29.82 "Hg10 mi
12:53 PM82 °FSunny.7 mph41%29.84 "Hg10 mi
11:53 AM79 °FSunny.6 mph47%29.85 "Hg10 mi
10:53 AM76 °FSunny.9 mph50%29.87 "Hg10 mi
9:53 AM73 °FSunny.8 mph55%29.88 "Hg10 mi
8:53 AM69 °FSunny.6 mph66%29.88 "Hg10 mi
7:53 AM65 °FSunny.No wind76%29.88 "Hg10 mi
Weather by CustomWeather, © 2014

See weather overviewHow to use our weather pages